Find Starlink 32771

NORAD ID: 62573 Int'l Des: 2025-006 Owner: SPXS Country: US Constellation: starlink operational
LEOCIRCULAR

現在のビュー

3D地球を読み込み中...

About Starlink 32771

Starlink 32771 (NORAD 62573) is a starlink constellation satellite (v2 mini) launched Jan 10, 2025 by SPXS of US. It operates in LEO, CIRCULAR orbit with a mass of 730.00 kg.

Starlink 32771について

説明を読み込み中...

次回通過

Passes for default location (London). Set your location on the main map for personalized predictions.

高度履歴

Loading altitude history...

軌道要素

1 62573U 25006V 26169.17589965 .00013087 00000-0 48389-3 0 9994
2 62573 43.0019 84.8266 0001647 276.8690 83.1975 15.27604821 80234
Epoch: Jun 18, 2026 • Age: 14 hours

現在のステータス

高度 482.2 km
速度 7.63 km/s
衛星直下点 13.85°N, 86.79°W
打ち上げ日 Jan 10, 2025
運用期間 1.4 years
タイプ internet

技術仕様

分類 Payload
質量 730.00 kg
乾燥質量 700.00 kg
総質量 730.00 kg
長さ 0.30 m
直径 4.10 m
スパン 29.00 m
形状 Box + pan
製造者 SPXS
バスタイプ Starlink V2M
フェーズステータス In Orbit
所有者/国 SPXS/US

Most Searched